Temp
-5 -5 -5 -5 -5 -5 -5 -5 -5 -5 -5 -5 -5 -5 -5 -5 -5 -5 -6 -6 -6 -6 -6 -6 -6 -6 -6 -6 -6 -6 -7 -6 -7 -7 -6 -7 -7 -7 -7 -7 -7 -7
-5 -5 -5 -5 -5 -5 -5 -5 -5 -5 -5 -5 -5 -5 -5 -5 -5 -5 -5 -6 -6 -6 -6 -6 -6 -6 -6 -6 -6 -6 -7 -6 -7 -7 -6 -6 -7 -7 -7 -7 -7 -7
-4 -5 -5 -5 -5 -5 -5 -5 -5 -5 -5 -5 -5 -5 -5 -5 -5 -5 -5 -5 -6 -6 -6 -6 -6 -6 -6 -6 -6 -6 -6 -6 -6 -6 -6 -6 -6 -6 -6 -6 -6 -6
-4 -5 -5 -5 -5 -5 -5 -5 -5 -5 -5 -5 -5 -5 -5 -5 -5 -5 -5 -5 -6 -6 -6 -6 -6 -6 -6 -6 -6 -6 -6 -6 -6 -6 -6 -7 -7 -6 -6 -6 -6 -6
-4 -4 -5 -5 -5 -5 -5 -5 -5 -5 -5 -5 -5 -5 -5 -5 -5 -5 -5 -5 -5 -6 -6 -6 -6 -6 -6 -6 -6 -6 -6 -6 -6 -6 -6 -6 -6 -6 -6 -6 -6 -6
-4 -4 -4 -5 -5 -5 -5 -5 -5 -5 -5 -5 -5 -5 -5 -5 -5 -5 -5 -5 -5 -5 -6 -6 -6 -6 -6 -6 -6 -6 -6 -6 -6 -6 -6 -6 -6 -6 -6 -6 -6 -6
-5 -5 -4 -4 -5 -5 -5 -5 -5 -5 -5 -5 -5 -5 -5 -5 -5 -5 -5 -5 -5 -5 -5 -6 -6 -6 -6 -6 -6 -6 -6 -6 -6 -6 -6 -6 -6 -6 -6 -6 -6 -6
-5 -5 -5 -5 -5 -5 -5 -5 -4 -5 -5 -5 -5 -5 -5 -5 -5 -5 -5 -5 -5 -5 -5 -6 -6 -6 -6 -6 -6 -6 -6 -6 -6 -6 -6 -6 -6 -6 -6 -6 -6 -6
-5 -5 -5 -5 -5 -5 -5 -4 -4 -5 -5 -5 -5 -5 -5 -5 -5 -5 -5 -5 -6 -6 -5 -6 -6 -6 -6 -6 -6 -6 -6 -6 -6 -6 -6 -6 -6 -5 -5 -5 -5 -5
-5 -5 -5 -5 -5 -5 -5 -5 -5 -5 -5 -5 -5 -5 -5 -5 -5 -5 -5 -5 -6 -6 -6 -5 -5 -5 -5 -5 -6 -6 -6 -6 -6 -6 -6 -6 -5 -5 -5 -5 -5 -5
-5 -5 -5 -5 -5 -5 -5 -5 -5 -5 -5 -5 -5 -5 -5 -5 -5 -5 -5 -5 -5 -6 -5 -5 -5 -5 -5 -5 -6 -6 -6 -6 -6 -5 -5 -5 -5 -5 -5 -5 -5 -5
-5 -5 -5 -5 -5 -5 -5 -5 -5 -5 -5 -5 -5 -5 -5 -5 -5 -5 -5 -5 -5 -5 -5 -5 -5 -5 -5 -5 -5 -6 -6 -6 -5 -5 -5 -5 -5 -5 -5 -5 -5 -5
-5 -5 -5 -5 -5 -5 -5 -5 -5 -5 -5 -5 -5 -5 -5 -5 -5 -5 -5 -5 -5 -5 -5 -5 -5 -5 -5 -5 -5 -5 -6 -5 -5 -5 -5 -5 -5 -5 -5 -5 -5 -5
-5 -5 -5 -5 -5 -5 -5 -5 -5 -5 -5 -5 -5 -5 -5 -5 -5 -5 -5 -5 -5 -5 -5 -5 -6 -6 -6 -6 -6 -6 -5 -5 -5 -5 -5 -5 -5 -5 -5 -5 -5 -5
-5 -5 -5 -5 -5 -5 -5 -5 -5 -5 -5 -5 -5 -5 -5 -5 -5 -5 -5 -6 -5 -5 -5 -5 -6 -6 -6 -6 -6 -6 -6 -5 -5 -5 -5 -5 -5 -5 -5 -5 -5 -5
-5 -5 -5 -5 -5 -5 -5 -5 -5 -5 -5 -5 -5 -5 -5 -6 -6 -5 -5 -5 -5 -5 -5 -5 -5 -5 -5 -5 -5 -5 -5 -5 -5 -6 -6 -6 -5 -5 -5 -5 -5 -5
-5 -5 -5 -5 -5 -5 -5 -5 -5 -5 -5 -5 -5 -5 -5 -5 -6 -6 -6 -6 -5 -5 -5 -5 -5 -5 -5 -5 -5 -5 -5 -5 -5 -6 -6 -6 -6 -5 -5 -5 -5 -5
-6 -6 -5 -5 -5 -5 -5 -5 -5 -5 -5 -5 -5 -5 -5 -6 -6 -6 -6 -6 -6 -6 -5 -5 -5 -5 -5 -5 -5 -5 -5 -5 -5 -5 -5 -5 -5 -5 -5 -5 -5 -5
-6 -6 -6 -5 -6 -6 -5 -5 -5 -5 -5 -5 -6 -6 -6 -6 -6 -6 -6 -6 -6 -6 -5 -5 -6 -6 -6 -6 -6 -5 -5 -5 -5 -5 -5 -5 -5 -5 -5 -5 -5 -5
-6 -6 -6 -5 -5 -6 -6 -6 -5 -5 -5 -5 -6 -6 -6 -6 -6 -6 -6 -6 -6 -5 -5 -6 -6 -6 -6 -6 -6 -6 -6 -6 -5 -5 -5 -5 -5 -5 -5 -5 -5 -5
-6 -6 -6 -5 -5 -5 -6 -6 -6 -6 -5 -5 -5 -5 -6 -6 -6 -6 -6 -5 -5 -6 -5 -6 -6 -6 -6 -6 -6 -6 -5 -5 -5 -5 -5 -5 -5 -5 -5 -5 -5 -6
-6 -6 -6 -6 -6 -6 -6 -6 -6 -6 -6 -6 -6 -6 -6 -6 -6 -6 -6 -6 -6 -6 -6 -6 -6 -6 -6 -6 -6 -6 -6 -5 -5 -5 -5 -5 -5 -5 -5 -5 -6 -6
-6 -6 -6 -6 -7 -7 -6 -6 -6 -6 -6 -6 -6 -6 -6 -6 -6 -7 -7 -6 -6 -6 -6 -6 -6 -6 -6 -6 -6 -6 -6 -6 -6 -6 -6 -6 -6 -5 -5 -6 -6 -6
-6 -6 -6 -6 -7 -7 -6 -6 -6 -6 -6 -6 -6 -6 -6 -6 -6 -6 -7 -7 -7 -6 -6 -7 -6 -6 -6 -6 -6 -6 -6 -6 -6 -6 -6 -6 -6 -6 -6 -6 -6 -6
-6 -6 -6 -6 -6 -6 -6 -6 -6 -6 -6 -6 -6 -6 -6 -6 -7 -7 -7 -7 -7 -6 -7 -7 -7 -6 -6 -6 -6 -6 -6 -6 -6 -6 -7 -7 -6 -6 -6 -6 -6 -6
-6 -7 -6 -6 -6 -6 -6 -6 -6 -6 -6 -6 -6 -7 -7 -7 -7 -7 -7 -7 -7 -6 -7 -7 -7 -6 -6 -6 -6 -6 -6 -6 -6 -6 -7 -7 -7 -7 -7 -7 -6 -6
Height
5953 5954 5955 5956 5957 5958 5959 5960 5961 5962 5962 5963 5964 5964 5965 5965 5966 5966 5966 5966 5967 5967 5968 5968 5969 5969 5970 5970 5970 5971 5971 5971 5972 5972 5972 5972 5972 5972 5972 5972 5973 5973
5953 5954 5955 5956 5957 5958 5959 5960 5960 5961 5962 5963 5964 5964 5965 5965 5966 5966 5966 5966 5967 5967 5968 5969 5969 5970 5970 5971 5971 5972 5972 5972 5972 5973 5973 5973 5973 5973 5973 5973 5973 5973
5953 5954 5955 5956 5957 5958 5958 5959 5960 5961 5961 5962 5963 5964 5965 5965 5966 5966 5967 5967 5967 5967 5968 5969 5969 5970 5971 5971 5972 5972 5972 5973 5973 5973 5973 5973 5973 5973 5973 5973 5973 5973
5952 5953 5954 5956 5956 5957 5958 5959 5960 5961 5961 5962 5963 5964 5965 5965 5966 5966 5966 5967 5967 5968 5968 5969 5969 5970 5970 5971 5972 5972 5972 5973 5973 5973 5973 5973 5972 5972 5972 5973 5973 5973
5951 5953 5954 5955 5956 5957 5958 5958 5959 5960 5961 5962 5963 5964 5964 5965 5965 5966 5966 5967 5967 5967 5968 5968 5969 5969 5970 5971 5971 5971 5972 5972 5973 5973 5973 5972 5972 5972 5972 5972 5972 5972
5950 5952 5953 5954 5955 5956 5957 5958 5959 5960 5960 5961 5962 5963 5964 5964 5965 5966 5966 5967 5967 5967 5968 5968 5969 5969 5969 5970 5970 5971 5971 5972 5972 5972 5972 5972 5972 5972 5972 5972 5971 5972
5949 5951 5952 5953 5954 5955 5956 5957 5958 5959 5960 5961 5962 5963 5963 5964 5965 5966 5966 5967 5967 5967 5967 5968 5968 5969 5969 5969 5970 5970 5971 5971 5971 5971 5971 5971 5971 5971 5971 5971 5971 5971
5949 5950 5951 5952 5953 5954 5955 5956 5957 5958 5958 5960 5961 5962 5962 5963 5964 5965 5965 5966 5966 5967 5967 5967 5967 5968 5968 5968 5969 5969 5970 5970 5970 5970 5970 5971 5971 5971 5971 5971 5971 5971
5948 5949 5950 5950 5952 5953 5954 5954 5955 5957 5958 5959 5960 5961 5961 5962 5963 5964 5965 5965 5966 5966 5967 5967 5967 5967 5967 5968 5968 5968 5969 5969 5969 5969 5970 5970 5971 5971 5971 5971 5971 5971
5946 5947 5948 5949 5950 5951 5952 5953 5954 5955 5956 5958 5959 5959 5960 5961 5962 5963 5964 5964 5965 5966 5966 5967 5967 5967 5967 5967 5967 5967 5967 5968 5968 5968 5969 5969 5970 5970 5970 5970 5970 5970
5944 5945 5947 5948 5949 5950 5951 5952 5953 5954 5955 5956 5957 5958 5959 5960 5961 5962 5963 5963 5964 5964 5965 5965 5966 5966 5966 5966 5966 5966 5966 5966 5966 5967 5967 5968 5968 5969 5969 5969 5969 5969
5942 5944 5945 5946 5947 5949 5950 5951 5952 5952 5953 5954 5955 5956 5958 5958 5959 5960 5961 5961 5962 5963 5964 5964 5965 5965 5965 5965 5965 5965 5965 5965 5966 5966 5966 5967 5967 5967 5968 5968 5968 5968
5940 5942 5943 5944 5946 5947 5948 5949 5950 5951 5952 5953 5954 5955 5956 5956 5958 5959 5959 5960 5960 5961 5962 5963 5963 5964 5964 5964 5964 5964 5964 5964 5964 5964 5965 5965 5965 5966 5966 5966 5967 5966
5938 5939 5941 5942 5943 5945 5946 5947 5948 5949 5950 5951 5952 5953 5954 5955 5956 5957 5957 5958 5959 5960 5960 5961 5961 5962 5962 5963 5963 5963 5963 5962 5963 5963 5963 5964 5964 5964 5964 5964 5965 5965
5936 5937 5938 5940 5941 5943 5944 5945 5945 5946 5947 5948 5949 5951 5951 5952 5954 5955 5955 5955 5956 5958 5958 5959 5959 5960 5960 5961 5962 5962 5961 5961 5961 5961 5962 5962 5962 5962 5962 5962 5962 5963
5933 5935 5936 5937 5939 5940 5941 5942 5943 5943 5944 5945 5947 5948 5949 5950 5951 5952 5953 5953 5954 5955 5956 5957 5957 5958 5958 5959 5960 5960 5960 5960 5960 5960 5960 5960 5960 5960 5960 5960 5960 5960
5931 5932 5933 5935 5936 5937 5938 5939 5940 5941 5941 5942 5944 5945 5946 5947 5948 5949 5950 5950 5951 5952 5953 5954 5955 5956 5957 5958 5958 5959 5959 5959 5959 5958 5958 5958 5958 5958 5958 5958 5958 5958
5928 5929 5931 5932 5934 5935 5935 5936 5937 5938 5939 5940 5941 5942 5943 5944 5945 5945 5946 5947 5948 5949 5950 5952 5954 5954 5955 5955 5956 5956 5957 5957 5956 5956 5957 5957 5956 5956 5956 5956 5956 5956
5925 5927 5928 5929 5930 5931 5932 5933 5934 5935 5936 5937 5937 5938 5939 5940 5941 5942 5942 5943 5944 5945 5947 5950 5951 5951 5951 5952 5952 5953 5953 5954 5954 5954 5954 5954 5954 5954 5954 5953 5954 5954
5925 5925 5926 5927 5927 5927 5928 5929 5930 5932 5933 5933 5934 5935 5936 5937 5938 5938 5939 5940 5941 5941 5943 5945 5945 5945 5946 5947 5947 5948 5949 5950 5950 5951 5951 5951 5951 5951 5951 5951 5953 5953
5922 5922 5923 5924 5923 5924 5925 5926 5927 5928 5929 5930 5932 5933 5935 5936 5935 5935 5936 5937 5938 5938 5939 5941 5941 5941 5942 5943 5943 5944 5945 5946 5947 5947 5948 5948 5948 5947 5948 5950 5951 5951
5916 5917 5918 5919 5920 5921 5922 5923 5923 5924 5925 5928 5929 5931 5934 5935 5933 5933 5934 5935 5934 5934 5935 5937 5937 5938 5939 5939 5940 5940 5941 5942 5943 5943 5944 5944 5944 5945 5946 5947 5947 5947
5912 5913 5914 5916 5918 5919 5920 5919 5919 5920 5922 5924 5925 5927 5929 5929 5929 5930 5931 5931 5930 5930 5931 5932 5932 5933 5935 5936 5936 5936 5936 5937 5939 5940 5940 5940 5940 5941 5943 5943 5943 5943
5907 5908 5911 5913 5915 5916 5916 5916 5917 5918 5919 5920 5921 5922 5923 5924 5925 5926 5927 5926 5926 5927 5927 5926 5927 5928 5930 5931 5932 5932 5932 5933 5934 5935 5936 5936 5937 5938 5939 5940 5940 5941
5902 5903 5906 5908 5910 5911 5912 5913 5914 5915 5916 5917 5918 5917 5918 5919 5920 5921 5921 5922 5923 5923 5922 5922 5923 5925 5926 5927 5928 5928 5928 5929 5929 5930 5931 5932 5933 5934 5934 5935 5937 5937
5896 5898 5900 5903 5906 5907 5908 5909 5910 5911 5912 5913 5913 5913 5913 5914 5915 5915 5916 5918 5919 5919 5918 5918 5920 5922 5922 5923 5924 5924 5924 5924 5924 5925 5927 5928 5929 5930 5930 5930 5932 5933
Wind_Speed
10 9 9 9 9 9 9 9 8 8 7 7 6 5 4 4 3 2 1 1 2 2 3 4 4 4 5 6 5 5 5 4 4 4 4 4 4 4 4 3 3 3
11 10 10 10 10 10 10 9 9 8 8 8 7 6 5 4 3 2 2 2 2 2 2 3 3 3 3 4 4 4 3 2 2 3 3 3 2 2 2 2 3 3
11 11 11 11 11 11 11 10 10 9 8 8 7 6 5 4 3 3 2 2 2 2 2 2 2 2 2 2 2 2 1 1 1 1 1 2 2 2 2 3 4 4
12 12 11 11 11 11 11 11 10 10 9 8 7 6 5 5 4 4 3 3 2 2 2 2 2 1 1 1 0 0 1 0 0 1 1 2 2 2 3 4 4 5
13 13 12 12 12 11 11 11 10 10 9 9 8 7 7 6 5 5 5 4 3 3 3 3 3 3 3 3 2 3 3 2 2 2 2 2 2 2 2 3 3 4
13 13 13 13 12 12 11 11 10 10 10 9 9 9 8 7 7 6 6 5 5 5 5 5 5 5 5 5 4 4 4 4 5 4 3 3 3 3 3 3 2 3
14 14 14 14 13 13 13 12 11 10 10 10 10 10 9 8 8 7 7 6 6 6 6 6 6 6 6 6 6 6 5 6 6 5 4 4 4 4 3 3 3 3
16 15 15 15 14 14 14 14 13 12 12 11 11 11 10 10 10 9 8 7 8 8 8 7 7 7 7 7 7 7 7 7 7 7 6 6 6 6 5 5 4 4
16 16 16 16 15 16 16 15 14 14 14 13 13 12 12 11 11 10 10 9 9 9 10 9 9 9 8 8 8 8 7 8 8 8 8 8 8 8 8 7 7 5
17 17 17 17 16 16 16 16 16 16 15 15 15 14 13 13 13 12 11 11 11 11 11 11 10 10 9 9 9 9 8 8 9 9 9 8 8 9 9 8 9 8
19 19 19 18 18 17 17 17 17 17 17 17 16 16 16 15 15 14 14 13 12 12 12 12 11 10 10 10 10 10 9 9 10 10 10 9 9 9 9 9 9 9
20 20 20 20 19 19 18 18 18 18 18 18 18 18 18 17 16 16 16 15 14 14 14 13 12 11 11 11 11 10 10 10 9 9 10 10 9 9 10 9 9 9
22 22 21 21 21 20 20 20 19 20 19 19 19 19 18 18 18 18 18 16 16 16 15 14 13 13 12 11 11 11 10 10 10 10 10 10 10 9 10 10 9 9
23 23 23 22 22 21 21 21 21 21 21 21 21 19 19 19 18 18 19 18 18 18 17 16 15 15 14 13 12 12 11 11 10 11 11 11 11 11 11 11 10 10
25 24 24 24 24 23 22 22 22 22 22 22 21 21 21 20 19 20 21 21 21 21 19 18 17 17 16 15 14 13 13 12 11 11 12 12 12 12 12 12 12 11
25 25 26 26 26 25 24 24 24 24 24 23 22 22 22 22 22 22 23 23 23 22 21 20 20 20 19 17 16 16 15 13 12 12 13 13 13 13 14 14 13 13
26 26 27 27 27 27 26 26 26 25 25 24 24 23 23 23 23 23 23 23 23 23 23 23 23 22 20 19 18 18 17 16 15 15 15 15 15 15 15 15 14 14
26 27 27 28 28 28 28 28 27 27 26 26 25 25 24 24 24 24 25 24 24 24 23 22 22 22 21 21 20 20 20 19 19 19 19 19 18 17 17 16 16 16
28 27 28 29 29 29 29 29 29 28 27 27 26 26 25 25 25 25 25 25 25 25 23 21 21 21 21 22 22 22 22 22 23 23 22 22 21 20 20 19 18 17
28 28 29 31 31 30 30 30 30 29 28 28 27 26 26 25 26 26 26 26 26 26 25 23 23 24 23 23 24 24 25 25 25 24 24 24 24 24 23 22 20 19
30 30 32 33 33 32 31 31 30 29 28 28 27 27 25 24 27 27 26 26 27 28 27 26 26 27 26 25 26 26 26 26 25 25 25 25 25 26 24 22 20 21
33 33 34 33 32 33 33 32 32 32 30 28 27 27 26 27 30 29 28 27 28 29 29 28 28 29 28 27 28 29 29 28 27 26 26 26 26 25 24 22 22 23
37 36 35 33 32 34 35 34 34 33 31 29 28 28 30 33 34 32 30 30 31 31 31 31 33 33 32 31 30 31 31 30 29 29 28 28 27 26 24 24 24 25
40 40 38 35 35 36 36 36 35 33 32 31 31 31 33 35 34 33 32 31 31 30 31 32 34 33 32 30 29 30 31 31 31 32 31 31 29 27 26 26 26 26
44 44 42 39 38 37 37 36 34 33 33 34 33 33 34 33 32 32 31 29 28 28 29 30 30 28 28 27 27 28 30 32 33 33 33 34 33 30 29 29 28 28
42 45 44 41 39 38 38 37 36 36 36 36 36 36 34 32 31 31 31 29 27 27 28 28 26 24 24 25 24 24 26 29 32 34 33 34 34 33 32 32 31 30
Wind_Direction
200 201 206 208 206 212 218 220 223 226 230 238 244 246 251 256 258 252 223 124 108 109 106 105 107 104 99 101 99 92 86 84 78 71 66 63 64 61 52 38 17 6
204 207 215 219 220 225 228 229 231 236 244 249 251 251 249 244 242 228 188 153 136 138 134 125 123 121 116 115 110 100 96 90 71 57 46 33 38 43 33 14 354 349
208 211 216 221 223 228 234 235 236 239 245 248 248 245 234 223 222 213 196 178 163 164 165 161 152 147 143 130 112 102 110 103 66 27 6 342 341 359 354 335 333 331
212 214 216 221 225 227 232 235 236 239 240 238 236 234 226 219 214 211 207 199 193 197 201 209 214 218 235 245 229 277 269 210 176 268 286 302 315 337 341 334 333 328
215 216 215 219 225 228 231 231 231 234 236 233 229 226 224 221 215 214 214 212 220 229 236 244 249 254 263 272 273 271 276 277 268 260 261 269 287 306 312 316 323 324
219 220 219 220 223 226 230 229 227 230 233 232 229 225 224 223 222 223 222 222 232 241 250 258 262 266 269 273 275 272 275 281 280 278 277 270 266 268 275 285 305 320
223 224 224 224 223 227 230 227 224 228 231 232 233 231 228 228 229 232 234 238 243 248 253 259 264 267 269 273 275 274 273 276 278 283 287 281 273 269 268 272 283 305
225 226 227 227 226 228 230 228 227 230 232 232 234 235 235 235 236 238 241 246 252 258 260 260 261 262 265 267 269 270 271 273 275 278 280 280 280 281 282 280 280 291
227 228 229 230 228 229 230 232 234 234 234 234 234 237 240 243 245 245 246 248 252 259 263 264 262 261 262 264 266 268 269 269 270 271 273 275 277 281 286 290 292 296
227 229 231 231 231 232 233 235 237 236 237 238 237 238 241 245 248 250 251 252 254 258 262 266 267 268 268 267 266 266 266 266 268 270 272 275 276 278 283 289 294 297
227 229 231 232 232 233 234 235 236 236 237 239 239 240 241 243 246 249 251 252 253 257 261 265 268 270 271 270 268 268 266 264 266 271 275 277 277 280 283 285 289 293
229 230 231 233 233 234 235 235 236 237 237 238 238 239 240 242 245 248 249 248 249 253 257 261 266 267 267 267 266 266 266 265 266 270 273 276 279 282 283 284 285 287
233 233 233 234 234 234 235 235 236 239 239 239 240 239 239 241 242 245 247 246 246 249 253 257 261 262 263 264 262 262 263 264 266 268 269 272 274 276 278 280 282 283
237 237 237 237 237 236 237 238 238 238 239 240 243 244 244 244 242 244 247 247 248 251 253 253 254 255 257 259 260 261 260 260 262 265 267 268 269 271 273 275 278 280
240 241 241 241 240 239 238 239 240 240 241 240 241 243 245 247 246 246 248 249 252 253 252 252 252 253 252 251 253 255 256 256 258 261 263 264 264 266 267 270 274 277
241 242 243 243 243 242 240 240 240 242 243 243 242 242 243 245 246 246 247 249 252 254 255 256 256 255 252 250 250 253 256 257 258 260 263 264 264 264 265 267 270 273
242 243 244 244 244 244 243 243 242 242 243 244 245 245 244 245 246 248 248 249 251 252 254 256 258 260 260 257 254 254 257 259 259 259 261 263 265 266 266 267 268 270
245 246 246 245 245 244 244 244 244 244 244 244 245 247 247 247 248 250 251 252 253 253 254 257 261 264 265 263 260 257 257 258 259 259 260 260 262 263 265 266 267 268
243 245 247 246 246 246 245 245 245 246 246 246 247 248 248 249 250 251 253 255 257 258 259 262 263 262 261 262 262 260 258 257 258 259 261 261 261 262 262 263 265 268
246 247 248 247 246 245 245 245 245 246 248 248 248 249 250 252 253 253 253 255 258 259 259 259 258 256 255 255 256 257 257 257 257 259 261 262 263 262 261 262 264 267
246 246 247 248 247 246 246 246 246 246 247 249 251 252 253 256 258 258 257 258 261 262 261 260 259 258 256 255 255 255 257 257 258 259 260 260 261 262 264 266 267 265
244 243 244 246 249 249 248 246 246 246 247 250 253 256 257 256 256 257 259 260 260 260 261 260 259 259 259 261 262 262 261 259 258 258 258 259 259 261 263 265 264 263
247 246 244 245 248 250 248 245 244 245 246 248 251 254 256 256 254 252 255 257 257 258 260 260 259 258 258 261 265 266 265 263 260 259 258 257 257 258 260 261 263 265
248 247 246 244 245 248 248 246 245 246 248 249 251 254 254 255 255 253 252 253 254 257 258 258 259 259 260 261 264 266 266 264 262 261 258 256 256 257 258 262 265 268
248 247 245 242 242 245 246 246 244 245 249 251 254 256 254 252 253 252 250 250 251 254 255 255 256 258 260 263 267 269 270 267 263 261 257 256 256 258 258 261 265 268
248 246 244 242 242 245 247 247 246 247 251 253 254 255 253 250 248 247 247 247 247 249 252 253 252 253 257 262 267 273 278 274 265 258 255 255 256 258 260 263 265 267